Weather History for KVPC - January, 2012

Change the Weather History Date:

Tuesday, January 10, 2012

  Actual Average Record
Temperature  
Mean Temperature 56 °F 41 °F  
Max Temperature 60 °F 51 °F 70 °F (2006)
Min Temperature 53 °F 30 °F 14 °F (2015)
Degree Days  
Heating Degree Days 8 24  
Month to date heating degree days 240  
Since 1 July heating degree days 1542  
Growing Degree Days 6 (Base 50)    
Moisture  
Dew Point 56 °F    
Average Humidity 97    
Maximum Humidity 100    
Minimum Humidity 81    
Precipitation  
Precipitation 0.17 in 0.12 in 1.98 in (1972)
Month to date precipitation 1.17  
Year to date precipitation 1.17  
Sea Level Pressure  
Sea Level Pressure 30.01 in    
Wind  
Wind Speed 1 mph (ESE)    
Max Wind Speed 8 mph    
Max Gust Speed -    
Visibility 4 miles    
Events Fog , Rain    
T = Trace of Precipitation, MM = Missing Value Source: NWS Daily Summary

Daily Weather History Graph

Daily Weather History Graph

Search for Another Location

Airport or City:

Trip Planner

Search our weather history database for the weather conditions in past years. The results will help you decide how hot, cold, wet, or windy it might be!

Date:

Astronomy

Jan. 10, 2012 Rise Set
Actual Time 7:45 AM EST 5:48 PM EST
Civil Twilight 7:18 AM EST 6:15 PM EST
Nautical Twilight 6:47 AM EST 6:46 PM EST
Astronomical Twilight 6:17 AM EST 7:16 PM EST
Moon 7:33 PM EST (1/10) 8:28 AM EST (1/10)
Length of Visible Light 10h 57m
Length of Day
10h 02m
Full, 98% of the Moon is Illuminated
Jan 10
Full
Jan 16
Last Quarter
Jan 23
New
Jan 30
First Quarter
Feb 7
Full

Hourly Weather History & Observations

Time (EST) Temp. Dew Point Humidity Pressure Visibility Wind Dir Wind Speed Gust Speed Precip Events Conditions
12:53 AM 57.0 °F 55.9 °F 96% 30.07 in 0.2 mi South 3.5 mph - 0.01 in Fog Fog
1:23 AM 57.2 °F 57.2 °F 100% 30.09 in 0.5 mi Calm Calm - N/A Fog Fog
1:44 AM 57.2 °F 57.2 °F 100% 30.09 in 1.5 mi Calm Calm - N/A   Overcast
1:53 AM 57.0 °F 57.0 °F 100% 30.07 in 1.5 mi Calm Calm - N/A   Overcast
2:06 AM 57.2 °F 55.4 °F 94% 30.09 in 0.8 mi Calm Calm - N/A   Overcast
2:47 AM 55.4 °F 55.4 °F 100% 30.09 in 0.2 mi Calm Calm - 0.00 in Fog Fog
2:53 AM 55.9 °F 55.9 °F 100% 30.06 in 0.2 mi Calm Calm - 0.00 in Fog Fog
2:58 AM 55.4 °F 55.4 °F 100% 30.09 in 0.2 mi Calm Calm - 0.00 in Fog , Rain Light Rain
3:07 AM 55.4 °F 55.4 °F 100% 30.09 in 0.5 mi SW 3.5 mph - 0.01 in Fog , Rain Light Rain
3:21 AM 57.2 °F 55.4 °F 94% 30.09 in 2.0 mi Calm Calm - 0.04 in Rain Light Rain
3:42 AM 55.4 °F 55.4 °F 100% 30.09 in 1.5 mi Calm Calm - 0.08 in Rain Rain
3:51 AM 57.2 °F 55.4 °F 94% 30.08 in 3.0 mi Calm Calm - 0.08 in Rain Light Rain
3:52 AM 57.0 °F 55.9 °F 96% 30.06 in 3.0 mi Calm Calm - 0.08 in Rain Light Rain
4:11 AM 55.4 °F 55.4 °F 100% 30.08 in 1.8 mi Calm Calm - 0.00 in Rain Light Rain
4:29 AM 55.4 °F 55.4 °F 100% 30.07 in 0.5 mi Calm Calm - 0.01 in Fog Fog
4:46 AM 55.4 °F 55.4 °F 100% 30.07 in 1.2 mi Calm Calm - 0.01 in   Overcast
4:53 AM 55.9 °F 55.9 °F 100% 30.04 in 1.5 mi Calm Calm - 0.01 in   Overcast
5:02 AM 55.4 °F 55.4 °F 100% 30.06 in 0.8 mi Calm Calm - N/A   Overcast
5:31 AM 55.4 °F 55.4 °F 100% 30.05 in 0.2 mi Calm Calm - N/A Fog Fog
5:44 AM 55.4 °F 55.4 °F 100% 30.05 in 0.5 mi Calm Calm - N/A Fog Fog
5:53 AM 55.0 °F 55.0 °F 100% 30.03 in 0.5 mi Calm Calm - N/A Fog Fog
6:37 AM 55.4 °F 55.4 °F 100% 30.06 in 1.0 mi Calm Calm - N/A   Overcast
6:46 AM 55.4 °F 55.4 °F 100% 30.06 in 0.8 mi Calm Calm - N/A   Overcast
6:53 AM 54.0 °F 54.0 °F 100% 30.04 in 0.5 mi Calm Calm - N/A Fog Fog
7:10 AM 53.6 °F 53.6 °F 100% 30.04 in 0.5 mi Calm Calm - N/A Fog Fog
7:22 AM 55.4 °F 53.6 °F 94% 30.04 in 0.2 mi Calm Calm - N/A Fog Fog
7:53 AM 55.0 °F 54.0 °F 96% 30.03 in 0.2 mi Calm Calm - N/A Fog Fog
8:45 AM 55.4 °F 55.4 °F 100% 30.06 in 1.0 mi Calm Calm - N/A   Overcast
8:53 AM 55.9 °F 55.9 °F 100% 30.04 in 1.8 mi SE 3.5 mph - N/A   Overcast
9:10 AM 55.4 °F 55.4 °F 100% 30.06 in 3.0 mi Calm Calm - N/A   Overcast
9:51 AM 57.2 °F 57.2 °F 100% 30.08 in 5.0 mi Calm Calm - N/A   Mostly Cloudy
9:53 AM 57.0 °F 57.0 °F 100% 30.06 in 5.0 mi Calm Calm - N/A   Mostly Cloudy
10:06 AM 57.2 °F 57.2 °F 100% 30.09 in 7.0 mi Calm Calm - N/A   Overcast
10:53 AM 57.9 °F 57.0 °F 97% 30.06 in 8.0 mi Calm Calm - N/A   Overcast
11:53 AM 57.9 °F 57.0 °F 97% 30.04 in 7.0 mi Calm Calm - N/A   Overcast
12:53 PM 59.0 °F 57.0 °F 93% 30.01 in 7.0 mi Calm Calm - N/A   Overcast
1:53 PM 60.1 °F 57.9 °F 93% 29.98 in 6.0 mi NE 3.5 mph - N/A   Overcast
2:23 PM 60.8 °F 57.2 °F 88% 29.98 in 6.0 mi Calm Calm - N/A   Overcast
2:37 PM 60.8 °F 57.2 °F 88% 29.98 in 6.0 mi NE 3.5 mph - N/A   Overcast
2:53 PM 60.1 °F 57.9 °F 93% 29.95 in 7.0 mi NE 3.5 mph - N/A   Overcast
3:53 PM 60.1 °F 57.0 °F 90% 29.93 in 10.0 mi Calm Calm - N/A   Overcast
4:17 PM 60.8 °F 57.2 °F 88% 29.95 in 10.0 mi SSE 3.5 mph - N/A   Mostly Cloudy
4:53 PM 59.0 °F 53.1 °F 81% 29.92 in 10.0 mi Calm Calm - N/A   Partly Cloudy
5:53 PM 57.9 °F 54.0 °F 87% 29.92 in 10.0 mi Calm Calm - N/A   Overcast
6:53 PM 57.0 °F 54.0 °F 89% 29.91 in 10.0 mi SSE 8.1 mph - 0.00 in Rain Light Rain
7:53 PM 57.0 °F 54.0 °F 89% 29.91 in 9.0 mi ESE 5.8 mph - 0.00 in   Overcast
8:53 PM 55.9 °F 55.0 °F 97% 29.89 in 6.0 mi ESE 5.8 mph - 0.05 in   Overcast
9:05 PM 55.4 °F 55.4 °F 100% 29.91 in 7.0 mi Variable 4.6 mph - N/A   Overcast
9:28 PM 55.4 °F 55.4 °F 100% 29.90 in 4.0 mi SE 4.6 mph - 0.01 in Rain Light Rain
9:53 PM 55.9 °F 55.0 °F 97% 29.87 in 10.0 mi ESE 5.8 mph - 0.02 in   Overcast
10:09 PM 55.4 °F 55.4 °F 100% 29.90 in 10.0 mi Calm Calm - N/A   Overcast
10:18 PM 55.4 °F 55.4 °F 100% 29.89 in 10.0 mi ESE 4.6 mph - N/A   Overcast
10:53 PM 57.0 °F 55.9 °F 96% 29.86 in 10.0 mi Calm Calm - N/A   Overcast
11:53 PM 57.9 °F 55.9 °F 93% 29.83 in 9.0 mi SSE 6.9 mph - N/A   Overcast